Time,TemperatureF,DewpointF,PressureIn,WindDirection,WindDirectionDegrees,WindSpeedMPH,WindSpeedGustMPH,Humidity,HourlyPrecipIn,Conditions,Clouds,dailyrainin,SoftwareType,DateUTC
2013-05-10 00:01:00,56.7,54.4,29.91,NNE,16,0.1,1.1,92,0.00,-RA,OVC,0.00,WeatherDisplay:10.37,2013-05-10 04:01:00,
2013-05-10 00:02:00,56.8,54.8,29.91,NNE,15,0.2,1.1,93,0.00,-RA,OVC,0.00,WeatherDisplay:10.37,2013-05-10 04:02:00,
2013-05-10 00:07:00,56.7,54.4,29.91,NNE,16,0.2,0.0,92,0.00,-RA,OVC,0.00,WeatherDisplay:10.37,2013-05-10 04:07:00,
2013-05-10 00:12:00,56.7,54.7,29.91,NNE,16,0.0,1.1,93,0.00,-RA,OVC,0.00,WeatherDisplay:10.37,2013-05-10 04:12:00,
2013-05-10 00:17:00,56.6,54.6,29.91,NNE,16,0.0,0.0,93,0.00,-RA,OVC,0.00,WeatherDisplay:10.37,2013-05-10 04:17:00,
2013-05-10 00:22:00,56.5,54.8,29.91,NNE,16,0.0,0.0,94,0.00,-RA,OVC,0.00,WeatherDisplay:10.37,2013-05-10 04:22:00,
2013-05-10 00:27:00,56.7,54.7,29.91,NNE,28,0.0,1.1,93,0.00,-RA,OVC,0.00,WeatherDisplay:10.37,2013-05-10 04:27:00,
2013-05-10 00:32:00,56.5,54.5,29.91,NNE,28,0.0,0.0,93,0.00,-RA,OVC,0.00,WeatherDisplay:10.37,2013-05-10 04:32:00,
2013-05-10 00:37:00,56.5,54.5,29.91,NNE,28,1.2,2.3,93,0.00,-RA,OVC,0.00,WeatherDisplay:10.37,2013-05-10 04:37:00,
2013-05-10 00:42:00,56.3,54.3,29.91,NNE,27,2.0,3.5,93,0.00,-RA,OVC,0.00,WeatherDisplay:10.37,2013-05-10 04:42:00,
2013-05-10 00:47:00,56.1,54.4,29.91,NNE,27,2.1,2.3,94,0.00,-RA,OVC,0.00,WeatherDisplay:10.37,2013-05-10 04:47:00,
2013-05-10 00:52:00,56.1,54.4,29.91,NNE,27,1.1,2.3,94,0.00,-RA,OVC,0.00,WeatherDisplay:10.37,2013-05-10 04:52:00,
2013-05-10 00:57:00,56.1,54.7,29.91,NNE,27,0.0,0.0,95,0.00,-RA,OVC,0.00,WeatherDisplay:10.37,2013-05-10 04:57:00,
2013-05-10 01:02:00,56.1,54.7,29.91,NNE,27,0.0,0.0,95,0.00,-RA,OVC,0.00,WeatherDisplay:10.37,2013-05-10 05:02:00,
2013-05-10 01:07:00,56.2,54.8,29.91,NNE,27,0.2,1.1,95,0.00,-RA,OVC,0.00,WeatherDisplay:10.37,2013-05-10 05:07:00,
2013-05-10 01:12:00,56.2,55.1,29.90,NNE,27,0.0,0.0,96,0.00,-RA,OVC,0.00,WeatherDisplay:10.37,2013-05-10 05:12:00,
2013-05-10 01:17:00,56.2,55.1,29.90,NNE,27,0.0,0.0,96,0.00,-RA,OVC,0.00,WeatherDisplay:10.37,2013-05-10 05:17:00,
2013-05-10 01:22:00,56.2,55.1,29.90,NNE,27,0.9,1.1,96,0.00,-RA,OVC,0.00,WeatherDisplay:10.37,2013-05-10 05:22:00,
2013-05-10 01:27:00,56.1,55.0,29.90,NNE,27,0.2,1.1,96,0.00,-RA,OVC,0.00,WeatherDisplay:10.37,2013-05-10 05:27:00,
2013-05-10 01:32:00,56.2,55.1,29.90,NNE,27,0.0,0.0,96,0.00,-RA,OVC,0.00,WeatherDisplay:10.37,2013-05-10 05:32:00,
2013-05-10 01:37:00,56.1,55.3,29.90,NNE,27,0.0,0.0,97,0.00,-RA,OVC,0.00,WeatherDisplay:10.37,2013-05-10 05:37:00,
2013-05-10 01:42:00,56.2,55.4,29.90,NNE,27,0.0,0.0,97,0.00,-RA,OVC,0.00,WeatherDisplay:10.37,2013-05-10 05:42:00,
2013-05-10 01:47:00,56.1,55.3,29.89,NNE,27,0.0,0.0,97,0.00,-RA,OVC,0.00,WeatherDisplay:10.37,2013-05-10 05:47:00,
2013-05-10 01:52:00,56.2,55.4,29.90,NNE,27,0.0,0.0,97,0.00,-RA,OVC,0.00,WeatherDisplay:10.37,2013-05-10 05:52:00,
2013-05-10 01:57:00,56.2,55.4,29.90,NNE,27,0.0,1.1,97,0.00,-RA,OVC,0.00,WeatherDisplay:10.37,2013-05-10 05:57:00,
2013-05-10 02:02:00,56.1,55.3,29.90,NNE,27,2.6,3.5,97,0.00,-RA,OVC,0.00,WeatherDisplay:10.37,2013-05-10 06:02:00,
2013-05-10 02:07:00,56.1,55.3,29.90,NNE,27,1.1,2.3,97,0.00,-RA,OVC,0.00,WeatherDisplay:10.37,2013-05-10 06:07:00,
2013-05-10 02:12:00,56.0,55.2,29.91,NNE,27,0.1,1.1,97,0.00,-RA,OVC,0.00,WeatherDisplay:10.37,2013-05-10 06:12:00,
2013-05-10 02:17:00,56.0,55.2,29.91,North,354,2.4,5.8,97,0.00,-RA,OVC,0.00,WeatherDisplay:10.37,2013-05-10 06:17:00,
2013-05-10 02:22:00,56.1,55.3,29.91,North,354,0.5,3.5,97,0.00,-RA,OVC,0.00,WeatherDisplay:10.37,2013-05-10 06:22:00,
2013-05-10 02:27:00,56.0,55.2,29.91,North,354,1.7,3.5,97,0.00,-RA,OVC,0.00,WeatherDisplay:10.37,2013-05-10 06:27:00,
2013-05-10 02:32:00,56.0,55.2,29.91,West,274,0.8,3.5,97,0.00,-RA,OVC,0.00,WeatherDisplay:10.37,2013-05-10 06:32:00,
2013-05-10 02:38:00,56.1,55.3,29.91,West,274,0.2,1.1,97,0.00,-RA,OVC,0.00,WeatherDisplay:10.37,2013-05-10 06:38:00,
2013-05-10 02:43:00,56.1,55.3,29.91,West,274,0.0,1.1,97,0.00,-RA,OVC,0.00,WeatherDisplay:10.37,2013-05-10 06:43:00,
2013-05-10 02:48:00,56.0,55.2,29.91,West,274,0.5,2.3,97,0.00,-RA,OVC,0.00,WeatherDisplay:10.37,2013-05-10 06:48:00,
2013-05-10 02:53:00,56.1,55.3,29.91,West,274,0.9,2.3,97,0.00,-RA,OVC,0.00,WeatherDisplay:10.37,2013-05-10 06:53:00,
2013-05-10 02:58:00,56.2,55.4,29.91,West,274,0.4,1.1,97,0.00,-RA,OVC,0.00,WeatherDisplay:10.37,2013-05-10 06:58:00,
2013-05-10 03:03:00,56.2,55.4,29.91,West,274,0.2,2.3,97,0.00,-RA,OVC,0.00,WeatherDisplay:10.37,2013-05-10 07:03:00,
2013-05-10 03:08:00,56.2,55.6,29.91,West,274,0.0,0.0,98,0.00,-RA,OVC,0.00,WeatherDisplay:10.37,2013-05-10 07:08:00,
2013-05-10 03:13:00,56.4,55.6,29.91,West,274,0.0,0.0,97,0.00,-RA,OVC,0.00,WeatherDisplay:10.37,2013-05-10 07:13:00,
2013-05-10 03:18:00,56.2,55.4,29.91,West,274,0.0,0.0,97,0.00,-RA,OVC,0.00,WeatherDisplay:10.37,2013-05-10 07:18:00,
2013-05-10 03:23:00,56.3,55.5,29.91,West,274,0.0,0.0,97,0.00,-RA,OVC,0.00,WeatherDisplay:10.37,2013-05-10 07:23:00,
2013-05-10 03:28:00,56.1,55.3,29.91,West,274,0.0,2.3,97,0.00,-RA,OVC,0.00,WeatherDisplay:10.37,2013-05-10 07:28:00,
2013-05-10 03:33:00,56.1,55.3,29.91,West,274,1.4,4.6,97,0.00,-RA,OVC,0.00,WeatherDisplay:10.37,2013-05-10 07:33:00,
2013-05-10 03:38:00,56.0,55.2,29.91,West,274,0.8,3.5,97,0.00,-RA,OVC,0.00,WeatherDisplay:10.37,2013-05-10 07:38:00,
2013-05-10 03:43:00,56.1,55.3,29.91,West,274,0.1,1.1,97,0.00,-RA,OVC,0.00,WeatherDisplay:10.37,2013-05-10 07:43:00,
2013-05-10 03:48:00,56.0,55.2,29.91,West,274,0.0,0.0,97,0.00,-RA,OVC,0.00,WeatherDisplay:10.37,2013-05-10 07:48:00,
2013-05-10 03:53:00,56.0,55.2,29.91,West,274,0.0,0.0,97,0.00,-RA,OVC,0.00,WeatherDisplay:10.37,2013-05-10 07:53:00,
2013-05-10 03:58:00,55.9,55.1,29.90,West,274,0.6,2.0,97,0.00,-RA,OVC,0.00,WeatherDisplay:10.37,2013-05-10 07:58:00,
2013-05-10 04:03:00,56.0,55.2,29.90,West,274,0.0,1.1,97,0.00,-RA,OVC,0.00,WeatherDisplay:10.37,2013-05-10 08:03:00,
2013-05-10 04:08:00,56.0,55.2,29.90,West,274,0.0,0.0,97,0.00,-RA,OVC,0.00,WeatherDisplay:10.37,2013-05-10 08:08:00,
2013-05-10 04:13:00,55.9,55.1,29.91,West,274,0.0,1.1,97,0.00,-RA,OVC,0.00,WeatherDisplay:10.37,2013-05-10 08:13:00,
2013-05-10 04:18:00,56.0,55.2,29.91,West,274,1.4,3.5,97,0.00,-RA,OVC,0.00,WeatherDisplay:10.37,2013-05-10 08:18:00,
2013-05-10 04:23:00,55.9,55.1,29.91,West,274,0.3,2.3,97,0.00,-RA,OVC,0.00,WeatherDisplay:10.37,2013-05-10 08:23:00,
2013-05-10 04:28:00,55.9,55.1,29.91,West,274,0.8,2.3,97,0.00,-RA,OVC,0.00,WeatherDisplay:10.37,2013-05-10 08:28:00,
2013-05-10 04:33:00,56.0,55.2,29.91,West,274,0.1,0.0,97,0.00,-RA,OVC,0.00,WeatherDisplay:10.37,2013-05-10 08:33:00,
2013-05-10 04:38:00,55.9,55.3,29.91,West,274,0.0,0.0,98,0.00,-RA,OVC,0.00,WeatherDisplay:10.37,2013-05-10 08:38:00,
2013-05-10 04:43:00,56.0,55.2,29.91,West,264,4.4,5.0,97,0.00,-RA,OVC,0.00,WeatherDisplay:10.37,2013-05-10 08:43:00,
2013-05-10 04:48:00,55.9,55.3,29.92,WSW,257,0.1,1.1,98,0.00,-RA,OVC,0.00,WeatherDisplay:10.37,2013-05-10 08:48:00,
2013-05-10 04:53:00,55.9,55.1,29.92,WSW,257,0.1,0.0,97,0.00,-RA,OVC,0.00,WeatherDisplay:10.37,2013-05-10 08:53:00,
2013-05-10 04:58:00,56.0,55.4,29.92,WSW,254,0.7,0.0,98,0.00,-RA,OVC,0.00,WeatherDisplay:10.37,2013-05-10 08:58:00,
2013-05-10 05:03:00,56.0,55.2,29.92,WSW,251,1.0,2.3,97,0.00,-RA,OVC,0.00,WeatherDisplay:10.37,2013-05-10 09:03:00,
2013-05-10 05:08:00,56.0,55.2,29.92,WSW,252,0.0,0.0,97,0.00,-RA,OVC,0.00,WeatherDisplay:10.37,2013-05-10 09:08:00,
2013-05-10 05:13:00,56.1,55.3,29.92,WSW,252,0.0,0.0,97,0.00,-RA,OVC,0.00,WeatherDisplay:10.37,2013-05-10 09:13:00,
2013-05-10 05:18:00,56.1,55.3,29.92,WSW,252,0.4,2.3,97,0.00,-RA,OVC,0.00,WeatherDisplay:10.37,2013-05-10 09:18:00,
2013-05-10 05:23:00,56.0,55.2,29.92,WSW,252,1.3,1.3,97,0.00,-RA,OVC,0.00,WeatherDisplay:10.37,2013-05-10 09:23:00,
2013-05-10 05:28:00,56.1,55.3,29.92,WSW,252,0.1,3.5,97,0.00,-RA,OVC,0.00,WeatherDisplay:10.37,2013-05-10 09:28:00,
2013-05-10 05:33:00,55.9,55.1,29.92,WSW,252,0.0,0.0,97,0.00,-RA,OVC,0.00,WeatherDisplay:10.37,2013-05-10 09:33:00,
2013-05-10 05:38:00,56.0,54.9,29.92,WSW,252,0.0,0.0,96,0.00,-RA,OVC,0.00,WeatherDisplay:10.37,2013-05-10 09:38:00,
2013-05-10 05:43:00,56.1,55.3,29.92,WSW,253,0.2,2.3,97,0.00,-RA,OVC,0.00,WeatherDisplay:10.37,2013-05-10 09:43:00,
2013-05-10 05:48:00,56.0,55.2,29.92,WSW,253,0.0,0.0,97,0.00,-RA,OVC,0.00,WeatherDisplay:10.37,2013-05-10 09:48:00,
2013-05-10 05:53:00,56.1,55.3,29.92,WSW,253,0.0,0.0,97,0.00,-RA,OVC,0.00,WeatherDisplay:10.37,2013-05-10 09:53:00,
2013-05-10 05:58:00,56.1,55.3,29.92,WSW,253,0.0,0.0,97,0.00,-RA,OVC,0.00,WeatherDisplay:10.37,2013-05-10 09:58:00,
2013-05-10 06:03:00,56.0,55.2,29.93,WSW,253,0.8,2.3,97,0.00,-RA,OVC,0.00,WeatherDisplay:10.37,2013-05-10 10:03:00,
2013-05-10 06:08:00,56.2,55.4,29.93,WSW,253,1.3,3.5,97,0.00,-RA,OVC,0.00,WeatherDisplay:10.37,2013-05-10 10:08:00,
2013-05-10 06:13:00,56.2,55.4,29.94,WSW,255,0.0,0.0,97,0.00,-RA,OVC,0.00,WeatherDisplay:10.37,2013-05-10 10:13:00,
2013-05-10 06:18:00,56.2,55.6,29.94,WSW,255,0.0,0.0,98,0.00,-RA,OVC,0.00,WeatherDisplay:10.37,2013-05-10 10:18:00,
2013-05-10 06:23:00,56.5,55.9,29.94,WSW,256,0.3,2.3,98,0.00,-RA,OVC,0.00,WeatherDisplay:10.37,2013-05-10 10:23:00,
2013-05-10 06:28:00,56.5,55.9,29.94,WSW,255,0.8,3.5,98,0.00,-RA,OVC,0.00,WeatherDisplay:10.37,2013-05-10 10:28:00,
2013-05-10 06:33:00,56.3,55.7,29.94,WSW,255,0.7,2.3,98,0.00,-RA,OVC,0.00,WeatherDisplay:10.37,2013-05-10 10:33:00,
2013-05-10 06:38:00,56.4,55.8,29.94,WSW,255,0.0,0.0,98,0.00,-RA,OVC,0.00,WeatherDisplay:10.37,2013-05-10 10:38:00,
2013-05-10 06:43:00,56.4,55.8,29.94,WSW,255,0.0,1.1,98,0.00,-RA,OVC,0.00,WeatherDisplay:10.37,2013-05-10 10:43:00,
2013-05-10 06:48:00,56.6,56.0,29.94,WSW,255,0.7,2.3,98,0.00,-RA,OVC,0.00,WeatherDisplay:10.37,2013-05-10 10:48:00,
2013-05-10 06:53:00,56.7,55.9,29.94,WSW,255,0.3,1.1,97,0.00,-RA,OVC,0.00,WeatherDisplay:10.37,2013-05-10 10:53:00,
2013-05-10 06:58:00,56.6,56.0,29.94,WSW,256,0.0,0.0,98,0.00,-RA,OVC,0.00,WeatherDisplay:10.37,2013-05-10 10:58:00,
2013-05-10 07:03:00,56.9,56.1,29.94,WSW,255,0.8,2.3,97,0.00,-RA,OVC,0.00,WeatherDisplay:10.37,2013-05-10 11:03:00,
2013-05-10 07:08:00,56.9,56.1,29.94,WSW,255,0.2,1.1,97,0.00,-RA,OVC,0.00,WeatherDisplay:10.37,2013-05-10 11:08:00,
2013-05-10 07:13:00,57.1,56.3,29.94,WSW,256,1.9,3.5,97,0.00,-RA,OVC,0.00,WeatherDisplay:10.37,2013-05-10 11:13:00,
2013-05-10 07:18:00,57.4,56.6,29.94,WSW,255,2.5,3.5,97,0.00,-RA,OVC,0.00,WeatherDisplay:10.37,2013-05-10 11:18:00,
2013-05-10 07:23:00,57.5,56.7,29.95,WSW,255,0.0,0.0,97,0.00,-RA,OVC,0.00,WeatherDisplay:10.37,2013-05-10 11:23:00,
2013-05-10 07:28:00,57.7,56.9,29.95,WSW,255,0.0,0.0,97,0.00,-RA,OVC,0.00,WeatherDisplay:10.37,2013-05-10 11:28:00,
2013-05-10 07:34:00,58.0,56.9,29.95,WSW,255,0.0,0.0,96,0.00,-RA,OVC,0.00,WeatherDisplay:10.37,2013-05-10 11:34:00,
2013-05-10 07:39:00,58.3,57.2,29.95,WSW,255,0.2,2.3,96,0.00,-RA,OVC,0.00,WeatherDisplay:10.37,2013-05-10 11:39:00,
2013-05-10 07:44:00,58.5,57.4,29.95,WSW,256,0.3,1.1,96,0.00,-RA,OVC,0.00,WeatherDisplay:10.37,2013-05-10 11:44:00,
2013-05-10 07:49:00,58.7,57.3,29.95,WSW,255,0.0,0.0,95,0.00,-RA,OVC,0.00,WeatherDisplay:10.37,2013-05-10 11:49:00,
2013-05-10 07:54:00,58.9,57.5,29.95,WSW,255,1.1,2.3,95,0.00,-RA,OVC,0.00,WeatherDisplay:10.37,2013-05-10 11:54:00,
2013-05-10 07:59:00,59.2,57.8,29.95,WSW,255,1.1,2.3,95,0.00,-RA,OVC,0.00,WeatherDisplay:10.37,2013-05-10 11:59:00,
2013-05-10 08:04:00,59.4,57.7,29.95,WSW,255,0.0,1.1,94,0.00,-RA,OVC,0.00,WeatherDisplay:10.37,2013-05-10 12:04:00,
2013-05-10 08:09:00,59.5,57.5,29.95,WSW,255,0.0,0.0,93,0.00,-RA,OVC,0.00,WeatherDisplay:10.37,2013-05-10 12:09:00,
2013-05-10 08:14:00,59.7,57.4,29.95,WSW,255,2.7,3.5,92,0.00,-RA,OVC,0.00,WeatherDisplay:10.37,2013-05-10 12:14:00,
2013-05-10 08:19:00,59.8,57.5,29.96,WSW,249,4.0,5.8,92,0.00,-RA,OVC,0.00,WeatherDisplay:10.37,2013-05-10 12:19:00,
2013-05-10 08:24:00,59.9,57.3,29.96,WSW,246,3.1,4.6,91,0.00,-RA,OVC,0.00,WeatherDisplay:10.37,2013-05-10 12:24:00,
2013-05-10 08:29:00,60.3,58.0,29.96,WSW,246,1.2,0.0,92,0.00,-RA,OVC,0.00,WeatherDisplay:10.37,2013-05-10 12:29:00,
2013-05-10 08:34:00,60.5,57.9,29.95,WSW,242,3.2,3.5,91,0.00,-RA,OVC,0.00,WeatherDisplay:10.37,2013-05-10 12:34:00,
2013-05-10 08:39:00,60.8,57.8,29.96,SW,236,3.1,3.5,90,0.00,-RA,OVC,0.00,WeatherDisplay:10.37,2013-05-10 12:39:00,
2013-05-10 08:44:00,60.7,57.4,29.96,WNW,296,2.7,4.6,89,0.00,-RA,OVC,0.00,WeatherDisplay:10.37,2013-05-10 12:44:00,
2013-05-10 08:49:00,60.9,58.3,29.96,WSW,254,2.0,3.5,91,0.00,-RA,OVC,0.00,WeatherDisplay:10.37,2013-05-10 12:49:00,
2013-05-10 08:54:00,61.6,58.6,29.96,WSW,239,1.0,0.0,90,0.00,-RA,OVC,0.00,WeatherDisplay:10.37,2013-05-10 12:54:00,
2013-05-10 08:59:00,61.9,58.3,29.96,SW,219,1.5,3.5,88,0.00,-RA,OVC,0.00,WeatherDisplay:10.37,2013-05-10 12:59:00,
2013-05-10 09:04:00,62.2,58.6,29.96,SW,219,0.0,1.1,88,0.00,-RA,OVC,0.00,WeatherDisplay:10.37,2013-05-10 13:04:00,
2013-05-10 09:09:00,62.4,58.8,29.96,SW,222,2.0,0.0,88,0.00,-RA,OVC,0.00,WeatherDisplay:10.37,2013-05-10 13:09:00,
2013-05-10 09:14:00,62.5,58.3,29.96,SW,226,1.3,5.8,86,0.00,-RA,OVC,0.00,WeatherDisplay:10.37,2013-05-10 13:14:00,
2013-05-10 09:19:00,62.4,58.1,29.96,WSW,242,3.0,0.0,86,0.00,-RA,OVC,0.00,WeatherDisplay:10.37,2013-05-10 13:19:00,
2013-05-10 09:24:00,62.5,57.9,29.96,West,265,4.0,8.1,85,0.00,-RA,OVC,0.00,WeatherDisplay:10.37,2013-05-10 13:24:00,
2013-05-10 09:29:00,62.8,58.5,29.96,West,259,3.2,5.8,86,0.00,-RA,OVC,0.00,WeatherDisplay:10.37,2013-05-10 13:29:00,
2013-05-10 09:34:00,63.1,58.5,29.96,WSW,247,2.0,0.0,85,0.00,-RA,OVC,0.00,WeatherDisplay:10.37,2013-05-10 13:34:00,
2013-05-10 09:39:00,63.4,58.1,29.96,WSW,239,4.3,4.3,83,0.00,-RA,OVC,0.00,WeatherDisplay:10.37,2013-05-10 13:39:00,
2013-05-10 09:44:00,64.0,58.7,29.96,WSW,240,1.7,3.5,83,0.00,-RA,OVC,0.00,WeatherDisplay:10.37,2013-05-10 13:44:00,
2013-05-10 09:49:00,64.6,59.0,29.96,WSW,239,1.0,0.0,82,0.00,-RA,OVC,0.00,WeatherDisplay:10.37,2013-05-10 13:49:00,
2013-05-10 09:54:00,65.4,59.8,29.96,WSW,240,1.8,2.3,82,0.00,-RA,OVC,0.00,WeatherDisplay:10.37,2013-05-10 13:54:00,
2013-05-10 09:59:00,65.5,58.5,29.96,WSW,244,1.0,0.0,78,0.00,-RA,OVC,0.00,WeatherDisplay:10.37,2013-05-10 13:59:00,
2013-05-10 10:04:00,65.6,59.2,29.96,WSW,246,0.0,0.0,80,0.00,-RA,OVC,0.00,WeatherDisplay:10.37,2013-05-10 14:04:00,
2013-05-10 10:09:00,66.1,59.8,29.95,WSW,247,1.0,0.0,80,0.00,-RA,OVC,0.00,WeatherDisplay:10.37,2013-05-10 14:09:00,
2013-05-10 10:14:00,67.4,60.7,29.96,WSW,247,0.3,2.3,79,0.00,-RA,OVC,0.00,WeatherDisplay:10.37,2013-05-10 14:14:00,
2013-05-10 10:19:00,67.8,60.7,29.96,WSW,247,1.9,3.5,78,0.00,-RA,OVC,0.00,WeatherDisplay:10.37,2013-05-10 14:19:00,
2013-05-10 10:24:00,68.5,60.3,29.96,WSW,247,0.7,3.5,75,0.00,-RA,OVC,0.00,WeatherDisplay:10.37,2013-05-10 14:24:00,
2013-05-10 10:29:00,68.8,60.2,29.95,WSW,247,1.9,3.5,74,0.00,-RA,OVC,0.00,WeatherDisplay:10.37,2013-05-10 14:29:00,
2013-05-10 10:34:00,69.0,60.4,29.95,WSW,247,1.0,0.0,74,0.00,-RA,OVC,0.00,WeatherDisplay:10.37,2013-05-10 14:34:00,
2013-05-10 10:39:00,69.7,60.7,29.95,WSW,247,0.3,2.3,73,0.00,-RA,OVC,0.00,WeatherDisplay:10.37,2013-05-10 14:39:00,
2013-05-10 10:44:00,69.5,59.7,29.95,WSW,247,0.4,2.3,71,0.00,-RA,OVC,0.00,WeatherDisplay:10.37,2013-05-10 14:44:00,
2013-05-10 10:49:00,70.2,60.7,29.95,WSW,246,1.0,3.5,72,0.00,-RA,OVC,0.00,WeatherDisplay:10.37,2013-05-10 14:49:00,
2013-05-10 10:54:00,70.4,60.5,29.96,WSW,255,3.3,3.5,71,0.00,-RA,OVC,0.00,WeatherDisplay:10.37,2013-05-10 14:54:00,
2013-05-10 10:59:00,70.5,59.8,29.95,WSW,255,0.6,2.3,69,0.00,-RA,OVC,0.00,WeatherDisplay:10.37,2013-05-10 14:59:00,
2013-05-10 11:04:00,70.7,60.0,29.95,SSW,211,1.8,4.0,69,0.00,-RA,OVC,0.00,WeatherDisplay:10.37,2013-05-10 15:04:00,
2013-05-10 11:09:00,71.2,61.7,29.95,South,187,1.8,3.5,72,0.00,-RA,OVC,0.00,WeatherDisplay:10.37,2013-05-10 15:09:00,
2013-05-10 11:14:00,72.0,61.3,29.95,South,186,0.4,2.3,69,0.00,-RA,OVC,0.00,WeatherDisplay:10.37,2013-05-10 15:14:00,
2013-05-10 11:19:00,72.6,61.8,29.95,ENE,71,2.7,4.6,69,0.00,-RA,OVC,0.00,WeatherDisplay:10.37,2013-05-10 15:19:00,
2013-05-10 11:24:00,72.7,61.1,29.95,SE,128,1.0,2.3,67,0.00,-RA,OVC,0.00,WeatherDisplay:10.37,2013-05-10 15:24:00,
2013-05-10 11:29:00,73.3,61.7,29.95,SE,130,1.0,3.5,67,0.00,-RA,OVC,0.00,WeatherDisplay:10.37,2013-05-10 15:29:00,
2013-05-10 11:34:00,73.8,61.7,29.95,SSE,159,1.3,2.3,66,0.00,-RA,OVC,0.00,WeatherDisplay:10.37,2013-05-10 15:34:00,
2013-05-10 11:39:00,74.3,62.2,29.95,South,190,2.1,5.8,66,0.00,-RA,OVC,0.00,WeatherDisplay:10.37,2013-05-10 15:39:00,
2013-05-10 11:44:00,74.8,60.9,29.95,SSW,194,3.9,4.6,62,0.00,-RA,OVC,0.00,WeatherDisplay:10.37,2013-05-10 15:44:00,
2013-05-10 11:49:00,75.1,60.7,29.95,SSW,194,2.6,3.5,61,0.00,-RA,OVC,0.00,WeatherDisplay:10.37,2013-05-10 15:49:00,
2013-05-10 11:54:00,75.6,60.7,29.95,SSW,201,0.8,3.5,60,0.00,-RA,OVC,0.00,WeatherDisplay:10.37,2013-05-10 15:54:00,
2013-05-10 11:59:00,76.1,61.7,29.95,SW,227,3.1,4.6,61,0.00,-RA,OVC,0.00,WeatherDisplay:10.37,2013-05-10 15:59:00,
2013-05-10 12:04:00,76.2,59.4,29.94,SW,227,3.1,7.0,56,0.00,-RA,OVC,0.00,WeatherDisplay:10.37,2013-05-10 16:04:00,
2013-05-10 12:09:00,76.4,59.0,29.95,SSW,194,3.8,5.8,55,0.00,-RA,OVC,0.00,WeatherDisplay:10.37,2013-05-10 16:09:00,
2013-05-10 12:15:00,76.5,59.6,29.95,South,171,2.2,3.5,56,0.00,-RA,OVC,0.00,WeatherDisplay:10.37,2013-05-10 16:15:00,
2013-05-10 12:20:00,76.7,58.3,29.95,South,172,1.9,3.5,53,0.00,-RA,OVC,0.00,WeatherDisplay:10.37,2013-05-10 16:20:00,
2013-05-10 12:25:00,76.5,61.6,29.95,South,172,2.8,3.5,60,0.00,-RA,OVC,0.00,WeatherDisplay:10.37,2013-05-10 16:25:00,
2013-05-10 12:30:00,76.6,60.2,29.95,South,176,3.5,3.5,57,0.00,-RA,OVC,0.00,WeatherDisplay:10.37,2013-05-10 16:30:00,
2013-05-10 12:35:00,75.7,59.4,29.95,South,178,0.0,0.0,57,0.00,-RA,OVC,0.00,WeatherDisplay:10.37,2013-05-10 16:35:00,
2013-05-10 12:40:00,76.2,59.9,29.95,South,177,1.2,2.3,57,0.00,-RA,OVC,0.00,WeatherDisplay:10.37,2013-05-10 16:40:00,
2013-05-10 12:45:00,76.5,59.1,29.95,NNW,347,3.5,5.8,55,0.00,-RA,OVC,0.00,WeatherDisplay:10.37,2013-05-10 16:45:00,
2013-05-10 12:50:00,76.6,56.6,29.94,WNW,296,0.7,2.0,50,0.00,-RA,OVC,0.00,WeatherDisplay:10.37,2013-05-10 16:50:00,
2013-05-10 12:55:00,76.3,57.9,29.95,SW,225,2.9,4.6,53,0.00,-RA,OVC,0.00,WeatherDisplay:10.37,2013-05-10 16:55:00,
2013-05-10 13:00:00,76.7,58.8,29.94,SW,227,0.8,1.1,54,0.00,-RA,OVC,0.00,WeatherDisplay:10.37,2013-05-10 17:00:00,
2013-05-10 13:05:00,77.5,56.8,29.94,SW,221,1.2,3.5,49,0.00,-RA,OVC,0.00,WeatherDisplay:10.37,2013-05-10 17:05:00,
2013-05-10 13:10:00,77.9,60.4,29.94,SW,222,3.0,3.5,55,0.00,-RA,OVC,0.00,WeatherDisplay:10.37,2013-05-10 17:10:00,
2013-05-10 13:15:00,77.0,59.1,29.93,SW,230,4.6,6.9,54,0.00,-RA,OVC,0.00,WeatherDisplay:10.37,2013-05-10 17:15:00,
2013-05-10 13:20:00,77.7,58.7,29.94,SE,137,3.0,4.6,52,0.00,-RA,OVC,0.00,WeatherDisplay:10.37,2013-05-10 17:20:00,
2013-05-10 13:25:00,78.5,57.2,29.94,ESE,120,2.9,3.5,48,0.00,-RA,OVC,0.00,WeatherDisplay:10.37,2013-05-10 17:25:00,
2013-05-10 13:30:00,79.4,58.0,29.93,ESE,121,2.6,3.5,48,0.00,-RA,OVC,0.00,WeatherDisplay:10.37,2013-05-10 17:30:00,
2013-05-10 13:35:00,80.1,57.5,29.93,SE,134,2.6,4.6,46,0.00,-RA,OVC,0.00,WeatherDisplay:10.37,2013-05-10 17:35:00,
2013-05-10 13:40:00,80.4,57.1,29.93,North,358,2.6,3.5,45,0.00,-RA,OVC,0.00,WeatherDisplay:10.37,2013-05-10 17:40:00,
2013-05-10 13:45:00,80.5,57.8,29.92,North,355,0.7,3.5,46,0.00,-RA,OVC,0.00,WeatherDisplay:10.37,2013-05-10 17:45:00,
2013-05-10 13:50:00,80.6,55.4,29.93,North,350,1.5,3.5,42,0.00,-RA,OVC,0.00,WeatherDisplay:10.37,2013-05-10 17:50:00,
2013-05-10 13:55:00,81.1,55.8,29.93,East,93,2.1,4.6,42,0.00,-RA,OVC,0.00,WeatherDisplay:10.37,2013-05-10 17:55:00,
2013-05-10 14:00:00,81.2,58.5,29.93,SW,231,3.6,8.1,46,0.00,-RA,OVC,0.00,WeatherDisplay:10.37,2013-05-10 18:00:00,
2013-05-10 14:05:00,80.3,55.8,29.93,SW,231,3.0,3.5,43,0.00,-RA,OVC,0.00,WeatherDisplay:10.37,2013-05-10 18:05:00,
2013-05-10 14:10:00,80.9,56.3,29.93,SW,231,2.6,2.6,43,0.00,-RA,OVC,0.00,WeatherDisplay:10.37,2013-05-10 18:10:00,
2013-05-10 14:15:00,81.3,56.7,29.93,SW,231,4.4,5.0,43,0.00,-RA,OVC,0.00,WeatherDisplay:10.37,2013-05-10 18:15:00,
2013-05-10 14:20:00,80.2,52.3,29.92,SW,234,2.1,3.5,38,0.00,-RA,OVC,0.00,WeatherDisplay:10.37,2013-05-10 18:20:00,
2013-05-10 14:25:00,79.9,53.4,29.92,WSW,252,1.4,2.3,40,0.00,-RA,OVC,0.00,WeatherDisplay:10.37,2013-05-10 18:25:00,
2013-05-10 14:30:00,81.0,55.7,29.92,ENE,77,2.5,3.5,42,0.00,-RA,OVC,0.00,WeatherDisplay:10.37,2013-05-10 18:30:00,
2013-05-10 14:35:00,81.6,58.2,29.92,SSE,162,4.8,8.1,45,0.00,-RA,OVC,0.00,WeatherDisplay:10.37,2013-05-10 18:35:00,
2013-05-10 14:40:00,80.8,57.5,29.93,SE,144,5.0,11.5,45,0.00,-RA,OVC,0.00,WeatherDisplay:10.37,2013-05-10 18:40:00,
2013-05-10 14:45:00,79.5,56.9,29.93,SSE,160,4.4,8.1,46,0.00,-RA,OVC,0.00,WeatherDisplay:10.37,2013-05-10 18:45:00,
2013-05-10 14:50:00,79.0,56.5,29.93,ENE,74,2.0,3.5,46,0.00,-RA,OVC,0.00,WeatherDisplay:10.37,2013-05-10 18:50:00,
2013-05-10 14:55:00,79.2,57.8,29.92,South,171,4.5,10.4,48,0.00,-RA,OVC,0.00,WeatherDisplay:10.37,2013-05-10 18:55:00,
2013-05-10 15:00:00,79.6,59.3,29.92,SSW,192,3.2,3.5,50,0.00,-RA,OVC,0.00,WeatherDisplay:10.37,2013-05-10 19:00:00,
2013-05-10 15:05:00,79.3,56.7,29.93,ENE,60,3.6,10.4,46,0.00,-RA,OVC,0.00,WeatherDisplay:10.37,2013-05-10 19:05:00,
2013-05-10 15:10:00,78.8,58.0,29.93,SSE,162,5.3,11.5,49,0.00,-RA,OVC,0.00,WeatherDisplay:10.37,2013-05-10 19:10:00,
2013-05-10 15:15:00,78.7,57.9,29.93,SE,136,5.5,9.2,49,0.00,-RA,OVC,0.00,WeatherDisplay:10.37,2013-05-10 19:15:00,
2013-05-10 15:20:00,78.7,57.9,29.93,SSW,196,4.0,6.9,49,0.00,-RA,OVC,0.00,WeatherDisplay:10.37,2013-05-10 19:20:00,
2013-05-10 15:25:00,78.4,58.2,29.93,ENE,63,2.8,3.5,50,0.00,-RA,OVC,0.00,WeatherDisplay:10.37,2013-05-10 19:25:00,
2013-05-10 15:30:00,77.8,58.2,29.93,SSW,210,2.7,3.5,51,0.00,-RA,OVC,0.00,WeatherDisplay:10.37,2013-05-10 19:30:00,
2013-05-10 15:35:00,77.4,58.4,29.93,SSW,213,3.8,4.6,52,0.00,-RA,OVC,0.00,WeatherDisplay:10.37,2013-05-10 19:35:00,
2013-05-10 15:40:00,78.0,59.5,29.93,SSW,205,3.3,4.6,53,0.00,-RA,OVC,0.00,WeatherDisplay:10.37,2013-05-10 19:40:00,
2013-05-10 15:45:00,78.2,58.0,29.93,SE,143,5.6,8.1,50,0.00,-RA,OVC,0.00,WeatherDisplay:10.37,2013-05-10 19:45:00,
2013-05-10 15:50:00,77.7,57.6,29.93,SSE,156,4.2,6.9,50,0.00,-RA,OVC,0.00,WeatherDisplay:10.37,2013-05-10 19:50:00,
2013-05-10 15:55:00,77.1,58.1,29.93,South,171,3.4,4.6,52,0.00,-RA,OVC,0.00,WeatherDisplay:10.37,2013-05-10 19:55:00,
2013-05-10 16:00:00,76.7,56.7,29.93,NE,54,3.3,4.6,50,0.00,-RA,OVC,0.00,WeatherDisplay:10.37,2013-05-10 20:00:00,
2013-05-10 16:05:00,76.2,57.3,29.93,ENE,63,0.9,3.5,52,0.00,-RA,OVC,0.00,WeatherDisplay:10.37,2013-05-10 20:05:00,
2013-05-10 16:10:00,75.7,56.8,29.93,ENE,63,1.4,3.5,52,0.00,-RA,OVC,0.00,WeatherDisplay:10.37,2013-05-10 20:10:00,
2013-05-10 16:15:00,75.3,57.0,29.93,ENE,73,2.4,3.5,53,0.00,-RA,OVC,0.00,WeatherDisplay:10.37,2013-05-10 20:15:00,
2013-05-10 16:20:00,74.3,56.6,29.93,East,83,3.0,4.6,54,0.00,-RA,OVC,0.00,WeatherDisplay:10.37,2013-05-10 20:20:00,
2013-05-10 16:25:00,74.3,57.6,29.93,SSE,151,3.9,4.6,56,0.00,-RA,OVC,0.00,WeatherDisplay:10.37,2013-05-10 20:25:00,
2013-05-10 16:30:00,73.7,56.0,29.93,SE,133,4.0,6.9,54,0.00,-RA,OVC,0.00,WeatherDisplay:10.37,2013-05-10 20:30:00,
2013-05-10 16:35:00,72.7,55.6,29.93,SE,138,4.0,9.2,55,0.00,-RA,OVC,0.00,WeatherDisplay:10.37,2013-05-10 20:35:00,
2013-05-10 16:40:00,72.0,55.9,29.94,SSE,147,2.2,3.5,57,0.00,-RA,OVC,0.00,WeatherDisplay:10.37,2013-05-10 20:40:00,
2013-05-10 16:45:00,71.1,55.1,29.94,ESE,119,4.4,10.4,57,0.00,-RA,OVC,0.00,WeatherDisplay:10.37,2013-05-10 20:45:00,
2013-05-10 16:50:00,70.6,55.6,29.94,SE,144,5.5,11.5,59,0.00,-RA,OVC,0.00,WeatherDisplay:10.37,2013-05-10 20:50:00,
2013-05-10 16:55:00,70.4,55.8,29.94,South,177,2.5,3.5,60,0.00,-RA,OVC,0.00,WeatherDisplay:10.37,2013-05-10 20:55:00,
2013-05-10 17:00:00,70.9,55.9,29.94,SSE,149,6.4,9.2,59,0.00,-RA,OVC,0.00,WeatherDisplay:10.37,2013-05-10 21:00:00,
2013-05-10 17:05:00,71.7,56.6,29.94,SSE,161,1.1,3.5,59,0.00,-RA,OVC,0.00,WeatherDisplay:10.37,2013-05-10 21:05:00,
2013-05-10 17:10:00,72.2,55.6,29.93,SSE,159,1.7,4.6,56,0.00,-RA,OVC,0.00,WeatherDisplay:10.37,2013-05-10 21:10:00,
2013-05-10 17:15:00,72.4,56.8,29.94,SSE,160,2.3,4.6,58,0.00,-RA,OVC,0.00,WeatherDisplay:10.37,2013-05-10 21:15:00,
2013-05-10 17:20:00,72.2,55.6,29.93,East,93,3.2,4.6,56,0.00,-RA,OVC,0.00,WeatherDisplay:10.37,2013-05-10 21:20:00,
2013-05-10 17:25:00,71.7,56.1,29.93,East,93,1.0,2.3,58,0.00,-RA,OVC,0.00,WeatherDisplay:10.37,2013-05-10 21:25:00,
2013-05-10 17:30:00,71.7,56.6,29.93,SSE,160,2.0,3.5,59,0.00,-RA,OVC,0.00,WeatherDisplay:10.37,2013-05-10 21:30:00,
2013-05-10 17:35:00,71.4,55.9,29.93,SSW,204,3.0,4.6,58,0.00,-RA,OVC,0.00,WeatherDisplay:10.37,2013-05-10 21:35:00,
2013-05-10 17:41:00,71.2,55.7,29.93,East,86,2.5,3.5,58,0.00,-RA,OVC,0.00,WeatherDisplay:10.37,2013-05-10 21:41:00,
2013-05-10 17:46:00,71.2,55.7,29.93,East,86,0.6,2.0,58,0.00,-RA,OVC,0.00,WeatherDisplay:10.37,2013-05-10 21:46:00,
2013-05-10 17:51:00,71.6,56.0,29.93,East,86,0.9,2.3,58,0.00,-RA,OVC,0.00,WeatherDisplay:10.37,2013-05-10 21:51:00,
2013-05-10 17:56:00,71.6,55.6,29.92,East,82,1.1,4.6,57,0.00,-RA,OVC,0.00,WeatherDisplay:10.37,2013-05-10 21:56:00,
2013-05-10 17:58:00,71.5,55.0,29.92,SE,130,2.9,6.9,56,0.00,-RA,OVC,0.00,WeatherDisplay:10.37,2013-05-10 21:58:00,
2013-05-10 17:59:00,71.5,55.0,29.92,SE,144,3.8,10.4,56,0.00,-RA,OVC,0.00,WeatherDisplay:10.37,2013-05-10 21:59:00,
2013-05-10 18:04:00,71.4,54.9,29.92,SE,136,0.6,4.6,56,0.00,-RA,OVC,0.00,WeatherDisplay:10.37,2013-05-10 22:04:00,
2013-05-10 18:09:00,70.7,55.2,29.92,SE,136,1.3,2.3,58,0.00,-RA,OVC,0.00,WeatherDisplay:10.37,2013-05-10 22:09:00,
2013-05-10 18:14:00,70.4,54.4,29.92,SE,143,2.9,3.5,57,0.00,-RA,OVC,0.00,WeatherDisplay:10.37,2013-05-10 22:14:00,
2013-05-10 18:19:00,70.3,54.3,29.92,SSE,159,1.2,1.2,57,0.00,-RA,OVC,0.00,WeatherDisplay:10.37,2013-05-10 22:19:00,
2013-05-10 18:24:00,70.2,54.2,29.92,SSE,159,1.8,2.3,57,0.00,-RA,OVC,0.00,WeatherDisplay:10.37,2013-05-10 22:24:00,
2013-05-10 18:29:00,69.7,54.3,29.92,NNE,16,3.0,3.0,58,0.00,-RA,OVC,0.00,WeatherDisplay:10.37,2013-05-10 22:29:00,
2013-05-10 18:34:00,69.4,54.4,29.92,SE,143,2.7,6.9,59,0.00,-RA,OVC,0.00,WeatherDisplay:10.37,2013-05-10 22:34:00,
2013-05-10 18:39:00,69.2,54.3,29.92,SSE,160,1.8,4.6,59,0.00,-RA,OVC,0.00,WeatherDisplay:10.37,2013-05-10 22:39:00,
2013-05-10 18:44:00,69.0,54.5,29.92,SSE,162,2.5,3.5,60,0.00,-RA,OVC,0.00,WeatherDisplay:10.37,2013-05-10 22:44:00,
2013-05-10 18:49:00,69.0,54.5,29.92,SSE,161,1.8,3.5,60,0.00,-RA,OVC,0.00,WeatherDisplay:10.37,2013-05-10 22:49:00,
2013-05-10 18:54:00,68.4,54.4,29.92,SSE,161,1.1,3.5,61,0.00,-RA,OVC,0.00,WeatherDisplay:10.37,2013-05-10 22:54:00,
2013-05-10 18:59:00,67.8,53.9,29.93,South,172,1.2,3.5,61,0.00,-RA,OVC,0.00,WeatherDisplay:10.37,2013-05-10 22:59:00,
2013-05-10 19:04:00,67.7,54.2,29.93,South,180,0.4,2.3,62,0.00,-RA,OVC,0.00,WeatherDisplay:10.37,2013-05-10 23:04:00,
2013-05-10 19:09:00,66.9,53.5,29.93,South,180,0.5,3.5,62,0.00,-RA,OVC,0.00,WeatherDisplay:10.37,2013-05-10 23:09:00,
2013-05-10 19:14:00,66.3,54.2,29.93,ESE,116,0.5,2.3,65,0.00,-RA,OVC,0.00,WeatherDisplay:10.37,2013-05-10 23:14:00,
2013-05-10 19:19:00,65.6,53.5,29.93,ESE,116,0.8,2.3,65,0.00,-RA,OVC,0.00,WeatherDisplay:10.37,2013-05-10 23:19:00,
2013-05-10 19:24:00,65.1,53.0,29.93,SE,140,0.0,1.1,65,0.00,-RA,OVC,0.00,WeatherDisplay:10.37,2013-05-10 23:24:00,
2013-05-10 19:29:00,64.8,51.9,29.93,SE,140,0.0,0.0,63,0.00,-RA,OVC,0.00,WeatherDisplay:10.37,2013-05-10 23:29:00,
2013-05-10 19:34:00,64.3,53.5,29.93,SE,141,0.2,1.1,68,0.00,-RA,OVC,0.00,WeatherDisplay:10.37,2013-05-10 23:34:00,
2013-05-10 19:39:00,63.9,54.3,29.94,SE,141,0.7,1.1,71,0.00,-RA,OVC,0.00,WeatherDisplay:10.37,2013-05-10 23:39:00,
2013-05-10 19:44:00,63.6,54.8,29.94,SE,140,0.0,0.0,73,0.00,-RA,OVC,0.00,WeatherDisplay:10.37,2013-05-10 23:44:00,
2013-05-10 19:49:00,63.3,54.9,29.93,SE,141,0.4,0.0,74,0.00,-RA,OVC,0.00,WeatherDisplay:10.37,2013-05-10 23:49:00,
2013-05-10 19:54:00,62.9,54.1,29.93,SE,140,0.1,1.1,73,0.00,-RA,OVC,0.00,WeatherDisplay:10.37,2013-05-10 23:54:00,
2013-05-10 19:59:00,62.6,54.2,29.93,SE,140,0.0,0.0,74,0.00,-RA,OVC,0.00,WeatherDisplay:10.37,2013-05-10 23:59:00,
2013-05-10 20:04:00,62.4,54.0,29.93,SE,140,0.0,0.0,74,0.00,-RA,OVC,0.00,WeatherDisplay:10.37,2013-05-11 00:04:00,
2013-05-10 20:09:00,62.1,53.7,29.93,SE,140,0.0,0.0,74,0.00,-RA,OVC,0.00,WeatherDisplay:10.37,2013-05-11 00:09:00,
2013-05-10 20:14:00,61.9,53.1,29.93,SE,141,0.0,1.0,73,0.00,-RA,OVC,0.00,WeatherDisplay:10.37,2013-05-11 00:14:00,
2013-05-10 20:19:00,61.6,53.6,29.93,SE,140,0.2,1.1,75,0.00,-RA,OVC,0.00,WeatherDisplay:10.37,2013-05-11 00:19:00,
2013-05-10 20:24:00,61.6,53.6,29.93,SE,140,0.3,2.3,75,0.00,-RA,OVC,0.00,WeatherDisplay:10.37,2013-05-11 00:24:00,
2013-05-10 20:29:00,61.3,53.3,29.93,SE,141,1.0,1.1,75,0.00,-RA,OVC,0.00,WeatherDisplay:10.37,2013-05-11 00:29:00,
2013-05-10 20:34:00,61.1,53.5,29.93,SE,140,0.0,0.0,76,0.00,-RA,OVC,0.00,WeatherDisplay:10.37,2013-05-11 00:34:00,
2013-05-10 20:39:00,61.0,53.7,29.93,SE,140,0.0,0.0,77,0.00,-RA,OVC,0.00,WeatherDisplay:10.37,2013-05-11 00:39:00,
2013-05-10 20:44:00,60.9,54.0,29.93,SE,140,0.0,0.0,78,0.00,-RA,OVC,0.00,WeatherDisplay:10.37,2013-05-11 00:44:00,
2013-05-10 20:49:00,60.6,54.0,29.93,SE,140,0.0,0.0,79,0.00,-RA,OVC,0.00,WeatherDisplay:10.37,2013-05-11 00:49:00,
2013-05-10 20:54:00,60.5,54.3,29.93,SE,140,0.0,1.1,80,0.00,-RA,OVC,0.00,WeatherDisplay:10.37,2013-05-11 00:54:00,
2013-05-10 20:59:00,60.4,54.2,29.92,SE,140,0.0,0.0,80,0.00,-RA,OVC,0.00,WeatherDisplay:10.37,2013-05-11 00:59:00,
2013-05-10 21:04:00,60.2,54.0,29.92,SE,140,0.1,0.0,80,0.00,-RA,OVC,0.00,WeatherDisplay:10.37,2013-05-11 01:04:00,
2013-05-10 21:09:00,60.2,54.0,29.93,SE,140,0.0,0.0,80,0.00,-RA,OVC,0.00,WeatherDisplay:10.37,2013-05-11 01:09:00,
2013-05-10 21:14:00,60.0,54.2,29.93,SE,140,0.0,1.1,81,0.00,-RA,OVC,0.00,WeatherDisplay:10.37,2013-05-11 01:14:00,
2013-05-10 21:19:00,59.9,54.1,29.93,SE,140,0.0,0.0,81,0.00,-RA,OVC,0.00,WeatherDisplay:10.37,2013-05-11 01:19:00,
2013-05-10 21:24:00,60.0,53.8,29.93,SE,141,0.0,0.0,80,0.00,-RA,OVC,0.00,WeatherDisplay:10.37,2013-05-11 01:24:00,
2013-05-10 21:29:00,59.9,54.0,29.93,SE,140,1.0,0.0,81,0.00,-RA,OVC,0.00,WeatherDisplay:10.37,2013-05-11 01:29:00,
2013-05-10 21:34:00,59.8,54.0,29.93,SE,141,0.0,0.0,81,0.00,-RA,OVC,0.00,WeatherDisplay:10.37,2013-05-11 01:34:00,
2013-05-10 21:39:00,59.6,53.8,29.93,SE,140,0.0,0.0,81,0.00,-RA,OVC,0.00,WeatherDisplay:10.37,2013-05-11 01:39:00,
2013-05-10 21:44:00,59.6,54.1,29.93,SE,141,0.0,0.0,82,0.00,-RA,OVC,0.00,WeatherDisplay:10.37,2013-05-11 01:44:00,
2013-05-10 21:49:00,59.5,54.0,29.93,SE,140,0.1,1.1,82,0.00,-RA,OVC,0.00,WeatherDisplay:10.37,2013-05-11 01:49:00,
2013-05-10 21:54:00,59.2,54.0,29.93,SE,140,0.0,0.0,83,0.00,-RA,OVC,0.00,WeatherDisplay:10.37,2013-05-11 01:54:00,
2013-05-10 21:59:00,59.0,54.2,29.93,SE,140,0.0,0.0,84,0.00,-RA,OVC,0.00,WeatherDisplay:10.37,2013-05-11 01:59:00,
2013-05-10 22:04:00,59.0,54.2,29.93,SE,140,0.0,0.0,84,0.00,-RA,OVC,0.00,WeatherDisplay:10.37,2013-05-11 02:04:00,
2013-05-10 22:09:00,58.8,54.0,29.93,SE,140,0.0,1.1,84,0.00,-RA,OVC,0.00,WeatherDisplay:10.37,2013-05-11 02:09:00,
2013-05-10 22:14:00,58.6,54.1,29.92,SE,140,0.0,0.0,85,0.00,-RA,OVC,0.00,WeatherDisplay:10.37,2013-05-11 02:14:00,
2013-05-10 22:19:00,58.4,53.9,29.92,SE,141,0.0,0.0,85,0.00,-RA,OVC,0.00,WeatherDisplay:10.37,2013-05-11 02:19:00,
2013-05-10 22:24:00,58.4,53.9,29.92,SE,140,0.0,0.0,85,0.00,-RA,OVC,0.00,WeatherDisplay:10.37,2013-05-11 02:24:00,
2013-05-10 22:29:00,58.4,54.2,29.92,SE,140,0.1,1.1,86,0.00,-RA,OVC,0.00,WeatherDisplay:10.37,2013-05-11 02:29:00,
2013-05-10 22:34:00,58.3,53.8,29.92,SE,141,0.0,0.0,85,0.00,-RA,OVC,0.00,WeatherDisplay:10.37,2013-05-11 02:34:00,
2013-05-10 22:39:00,58.4,53.9,29.92,SE,140,0.0,0.0,85,0.00,-RA,OVC,0.00,WeatherDisplay:10.37,2013-05-11 02:39:00,
2013-05-10 22:44:00,58.4,53.9,29.92,SE,140,0.0,0.0,85,0.00,-RA,OVC,0.00,WeatherDisplay:10.37,2013-05-11 02:44:00,
2013-05-10 22:49:00,58.4,54.2,29.92,SE,141,0.0,0.0,86,0.00,-RA,OVC,0.00,WeatherDisplay:10.37,2013-05-11 02:49:00,
2013-05-10 22:55:00,58.5,54.3,29.92,SE,140,0.0,0.0,86,0.00,-RA,OVC,0.00,WeatherDisplay:10.37,2013-05-11 02:55:00,
2013-05-10 23:00:00,58.6,54.4,29.92,SE,140,0.0,0.0,86,0.00,-RA,OVC,0.00,WeatherDisplay:10.37,2013-05-11 03:00:00,
2013-05-10 23:05:00,58.7,54.8,29.92,SE,140,0.0,0.0,87,0.00,-RA,OVC,0.00,WeatherDisplay:10.37,2013-05-11 03:05:00,
2013-05-10 23:10:00,58.8,54.6,29.91,SE,140,0.0,0.0,86,0.00,-RA,OVC,0.00,WeatherDisplay:10.37,2013-05-11 03:10:00,
2013-05-10 23:15:00,58.6,54.4,29.92,SE,140,0.0,0.0,86,0.00,-RA,OVC,0.00,WeatherDisplay:10.37,2013-05-11 03:15:00,
2013-05-10 23:20:00,58.7,54.8,29.92,SE,140,0.0,0.0,87,0.00,-RA,OVC,0.00,WeatherDisplay:10.37,2013-05-11 03:20:00,
2013-05-10 23:25:00,58.8,54.9,29.91,SE,141,0.0,0.0,87,0.00,-RA,OVC,0.00,WeatherDisplay:10.37,2013-05-11 03:25:00,
2013-05-10 23:30:00,58.7,54.8,29.91,SE,141,0.0,0.0,87,0.00,-RA,OVC,0.00,WeatherDisplay:10.37,2013-05-11 03:30:00,
2013-05-10 23:35:00,58.7,54.8,29.91,SE,141,0.0,0.0,87,0.00,-RA,OVC,0.00,WeatherDisplay:10.37,2013-05-11 03:35:00,
2013-05-10 23:40:00,58.8,54.9,29.92,SE,141,0.0,0.0,87,0.00,-RA,OVC,0.00,WeatherDisplay:10.37,2013-05-11 03:40:00,
2013-05-10 23:45:00,58.7,54.5,29.92,SE,140,0.0,0.0,86,0.00,-RA,OVC,0.00,WeatherDisplay:10.37,2013-05-11 03:45:00,
2013-05-10 23:50:00,58.7,54.8,29.92,SE,141,0.0,0.0,87,0.00,-RA,OVC,0.00,WeatherDisplay:10.37,2013-05-11 03:50:00,
2013-05-10 23:55:00,58.8,54.9,29.92,SE,140,0.0,0.0,87,0.00,-RA,OVC,0.00,WeatherDisplay:10.37,2013-05-11 03:55:00,